Edwards AFB North Base, CA

1:08 PM PDT on May 24, 2017 (GMT -0700)
Edwards AFB North Base

Weather History for K9L2 - January, 2012

Change the Weather History Date:

Tuesday, January 17, 2012

  Actual Average (KEDW) Record (KEDW)
Temperature  
Mean Temperature 30 °F -  
Max Temperature 48 °F 58 °F 73 °F (1999)
Min Temperature 12 °F 31 °F 10 °F (2007)
Degree Days  
Heating Degree Days 35    
Moisture  
Dew Point 10 °F    
Average Humidity 49    
Maximum Humidity 81    
Minimum Humidity 18    
Precipitation  
Precipitation 0.00 in - - ()
Sea Level Pressure  
Sea Level Pressure 30.30 in    
Wind  
Wind Speed 3 mph (NNW)    
Max Wind Speed 7 mph    
Max Gust Speed -    
Visibility 10 miles    
Events      
Averages and records for this station are not official NWS values.
T = Trace of Precipitation, MM = Missing Value Source: NWS Daily Summary

Daily Weather History Graph

Daily Weather History Graph

Search for Another Location

Airport or City:

Trip Planner

Search our weather history database for the weather conditions in past years. The results will help you decide how hot, cold, wet, or windy it might be!

Date:

Astronomy

Jan. 17, 2012 Rise Set
Actual Time 6:58 AM PST 5:04 PM PST
Civil Twilight 6:31 AM PST 5:32 PM PST
Nautical Twilight 6:00 AM PST 6:03 PM PST
Astronomical Twilight 5:29 AM PST 6:33 PM PST
Moon 1:24 AM PST (1/17) 12:00 PM PST (1/17)
Length of Visible Light 11h 01m
Length of Day
10h 06m
Waning Crescent, 34% of the Moon is Illuminated
Jan 17
Waning Crescent
Jan 22
New
Jan 30
First Quarter
Feb 7
Full
Feb 14
Last Quarter

Hourly Weather History & Observations

Time (PST) Temp. Windchill Dew Point Humidity Pressure Visibility Wind Dir Wind Speed Gust Speed Precip Events Conditions
12:55 AM 21.0 °F 16.2 °F 12.9 °F 71% 30.23 in 10.0 mi NW 3.5 mph - N/A   Unknown
1:55 AM 19.0 °F 10.0 °F 10.9 °F 71% 30.24 in 10.0 mi NNE 6.9 mph - N/A   Unknown
2:55 AM 19.0 °F 13.9 °F 10.9 °F 71% 30.25 in 10.0 mi North 3.5 mph - N/A   Unknown
3:55 AM 18.0 °F 12.7 °F 10.9 °F 74% 30.26 in 10.0 mi NW 3.5 mph - N/A   Unknown
4:55 AM 15.8 °F - 8.6 °F 73% 30.27 in 10.0 mi Calm Calm - N/A   Unknown
5:55 AM 15.1 °F - 9.0 °F 77% 30.30 in 10.0 mi Calm Calm - N/A   Unknown
6:01 AM - - - N/A% - - North - - N/A   Unknown
6:55 AM 12.9 °F 6.9 °F 8.1 °F 81% 30.33 in 10.0 mi West 3.5 mph - N/A   Unknown
7:55 AM 21.9 °F - 14.0 °F 72% 30.33 in 10.0 mi Calm Calm - N/A   Unknown
8:55 AM 28.9 °F - 16.0 °F 58% 30.34 in 10.0 mi Calm Calm - N/A   Unknown
9:55 AM 33.1 °F 30.0 °F 17.1 °F 52% 30.35 in 10.0 mi East 3.5 mph - N/A   Unknown
10:55 AM 37.0 °F - 18.0 °F 46% 30.33 in 10.0 mi Calm Calm - N/A   Clear
11:55 AM 43.0 °F - 16.0 °F 34% 30.30 in 10.0 mi Calm Calm - N/A   Clear
12:55 PM 46.0 °F 44.8 °F 14.0 °F 28% 30.27 in 10.0 mi SE 3.5 mph - N/A   Clear
1:55 PM 46.9 °F - 12.0 °F 24% 30.27 in 10.0 mi Calm Calm - N/A   Clear
2:55 PM 48.9 °F - 10.9 °F 22% 30.25 in 10.0 mi SE 3.5 mph - N/A   Clear
4:55 PM 48.9 °F - 6.1 °F 18% 30.25 in 10.0 mi Calm Calm - N/A   Clear
5:55 PM 37.9 °F 35.5 °F 6.1 °F 27% 30.29 in 10.0 mi NW 3.5 mph - N/A   Clear
6:55 PM 33.1 °F 30.0 °F 7.0 °F 34% 30.32 in 10.0 mi WNW 3.5 mph - N/A   Clear
7:55 PM 32.0 °F - 7.0 °F 35% 30.32 in 10.0 mi Calm Calm - N/A   Unknown
8:55 PM 26.1 °F 20.5 °F 5.0 °F 41% 30.31 in 10.0 mi West 4.6 mph - N/A   Unknown
9:55 PM 30.9 °F 24.3 °F 8.1 °F 38% 30.32 in 10.0 mi NNW 6.9 mph - N/A   Unknown
10:55 PM 27.0 °F - 5.0 °F 39% 30.33 in 10.0 mi Calm Calm - N/A   Unknown
11:55 PM 24.1 °F 19.7 °F 5.0 °F 44% 30.33 in 10.0 mi NNW 3.5 mph - N/A   Unknown